EW6895 Weather Reports


time (UTC)temp
F
wind
direction
speed
knots
gust
knots
rain 1hr
in
rain 24hr
in
rain mn
in
humidity
%
barometer
mb
20181015205528 43 353 7.0 16.5 0.09 2.14 1.65 94 1023.6
20181015205023 43 350 7.8 17.4 0.08 2.13 1.64 94 1023.6
20181015204515 43 344 8.7 14.8 0.08 2.12 1.63 94 1023.4
20181015204107 43 43 7.8 14.8 0.07 2.11 1.62 94 1023.4
20181015203559 43 345 7.0 16.5 0.06 2.09 1.60 94 1023.5
20181015203053 43 37 7.8 19.1 0.06 2.09 1.60 94 1023.5
20181015202544 43 351 10.4 19.1 0.05 2.08 1.59 94 1023.4
20181015202022 43 28 8.7 13.9 0.05 2.08 1.59 94 1023.4
20181015201556 43 18 9.6 13.9 0.05 2.08 1.59 94 1023.4
20181015201047 43 23 7.8 15.6 0.04 2.07 1.58 94 1023.6
20181015200539 43 339 7.8 13.0 0.04 2.07 1.58 94 1023.7
20181015200030 43 351 7.0 16.5 0.03 2.06 1.57 94 1023.7
20181015195602 43 28 7.0 15.6 0.02 2.05 1.56 94 1023.6
20181015195057 43 354 7.0 15.6 0.02 2.05 1.56 94 1023.7
20181015194548 43 343 7.0 14.8 0.01 2.04 1.55 94 1023.4
20181015194024 43 13 8.7 14.8 0.00 2.03 1.54 94 1023.1
20181015193558 43 345 7.0 16.5 0.00 2.03 1.54 94 1023.2
20181015193051 43 32 7.0 16.5 0.01 2.03 1.54 94 1023.3
20181015192541 43 10 8.7 16.5 0.01 2.03 1.54 94 1023.4
20181015192033 43 331 10.4 16.5 0.02 2.03 1.54 94 1023.6
20181015191526 43 345 8.7 13.0 0.02 2.03 1.54 95 1023.7
20181015191101 43 10 7.8 12.2 0.03 2.03 1.54 95 1023.6
20181015190554 43 359 5.2 13.9 0.04 2.03 1.54 95 1023.7
20181015190031 43 9 6.1 13.9 0.05 2.03 1.54 95 1023.9
20181015185604 43 313 7.8 13.0 0.06 2.03 1.54 95 1024.1
20181015185052 43 324 5.2 11.3 0.07 2.03 1.54 95 1024.1
20181015184544 43 10 7.8 13.0 0.08 2.03 1.54 95 1023.7
20181015184036 43 18 5.2 17.4 0.09 2.03 1.54 95 1024.0
20181015183104 43 321 6.1 13.9 0.09 2.02 1.53 95 1024.9
20181015182557 43 312 8.7 13.9 0.09 2.02 1.53 95 1024.9
20181015182036 43 331 6.1 9.6 0.09 2.01 1.52 95 1024.5
20181015181528 42 28 4.3 7.8 0.10 2.01 1.52 95 1024.3
20181015181100 42 18 4.3 11.3 0.10 2.00 1.51 95 1024.5
20181015180554 42 323 6.1 14.8 0.10 1.99 1.50 95 1025.2
20181015180049 42 339 6.1 15.6 0.09 1.98 1.49 95 1025.2
20181015175541 42 351 7.0 15.6 0.09 1.97 1.48 95 1024.4
20181015175017 42 342 7.0 13.9 0.08 1.96 1.47 95 1024.2
20181015174606 42 40 7.8 13.9 0.07 1.95 1.46 95 1024.7
20181015174044 42 9 7.8 13.9 0.07 1.94 1.45 94 1024.8
20181015173535 42 5 7.0 13.9 0.07 1.94 1.45 94 1024.9
20181015173027 42 8 6.1 13.9 0.07 1.93 1.44 94 1024.8
20181015172602 42 36 8.7 13.9 0.08 1.93 1.44 95 1025.1
20181015172052 42 319 7.0 16.5 0.08 1.92 1.43 95 1024.9
20181015171545 42 313 8.7 15.6 0.08 1.91 1.42 95 1024.7
20181015171020 42 336 7.8 14.8 0.09 1.90 1.41 95 1024.6
20181015170607 42 11 8.7 15.6 0.09 1.89 1.40 95 1024.9
20181015170044 42 7 8.7 15.6 0.11 1.89 1.40 94 1024.4
20181015165534 42 52 7.8 17.4 0.11 1.88 1.39 94 1024.1
20181015165028 42 11 8.7 16.5 0.13 1.88 1.39 94 1024.2
20181015164522 42 23 7.0 15.6 0.14 1.88 1.39 94 1024.4
20181015164014 42 348 9.6 17.4 0.14 1.87 1.38 94 1024.8
20181015163609 42 320 8.7 17.4 0.15 1.87 1.38 94 1024.4
20181015163058 42 358 7.8 17.4 0.15 1.86 1.37 94 1024.2
20181015162533 42 1 7.8 16.5 0.14 1.84 1.35 94 1024.1
20181015162026 43 331 7.0 14.8 0.13 1.83 1.34 95 1024.3
20181015161601 42 342 7.8 14.8 0.13 1.82 1.33 94 1024.3
20181015161055 42 359 7.8 13.9 0.13 1.81 1.32 94 1024.2
20181015160547 42 45 7.8 17.4 0.12 1.79 1.30 94 1023.7
20181015160042 43 354 7.0 17.4 0.11 1.78 1.29 95 1023.6
20181015155535 43 18 8.7 16.5 0.11 1.77 1.28 94 1023.8
20181015155020 43 5 10.4 16.5 0.09 1.75 1.26 94 1024.0
20181015154543 43 23 8.7 17.4 0.09 1.74 1.25 94 1023.9
20181015154030 43 7 10.4 20.0 0.09 1.73 1.24 94 1024.0
20181015153604 43 350 13.0 20.0 0.10 1.72 1.23 94 1023.9
20181015153040 43 13 10.4 17.4 0.10 1.71 1.22 94 1024.0
20181015152534 43 23 8.7 19.1 0.13 1.70 1.21 94 1023.8
20181015152027 43 2 10.4 19.1 0.17 1.70 1.21 94 1023.7
20181015151601 43 44 7.0 18.2 0.21 1.69 1.20 95 1023.5
20181015151055 43 11 9.6 16.5 0.23 1.68 1.19 95 1023.6
20181015150551 43 13 7.8 16.5 0.25 1.67 1.18 95 1023.6
20181015150044 43 11 7.0 18.2 0.31 1.67 1.18 95 1023.6
20181015145523 43 14 8.7 18.2 0.36 1.66 1.17 95 1023.6
20181015145054 43 356 8.7 18.2 0.44 1.66 1.17 95 1023.6
20181015144549 43 7 8.7 15.6 0.49 1.65 1.16 95 1023.7
20181015144043 43 18 7.0 13.9 0.50 1.64 1.15 95 1023.7
20181015143538 42 12 7.0 16.5 0.52 1.62 1.13 95 1023.4
20181015143029 42 40 7.8 18.2 0.53 1.60 1.11 95 1023.4
20181015142604 43 346 11.3 18.2 0.53 1.57 1.08 95 1023.3
20181015142054 43 51 7.0 15.6 0.52 1.53 1.04 95 1023.3
20181015141532 43 356 7.0 15.6 0.49 1.48 0.99 95 1023.9
20181015141104 43 13 9.6 15.6 0.47 1.45 0.96 95 1023.8
20181015140556 43 7 8.7 14.8 0.44 1.41 0.92 95 1023.9
20181015140051 43 7 7.8 14.8 0.40 1.36 0.87 94 1023.8
20181015135544 43 332 8.7 13.9 0.35 1.30 0.81 94 1023.7
20181015135036 43 10 5.2 15.6 0.27 1.20 0.71 94 1023.5
20181015134529 43 286 9.6 18.2 0.24 1.16 0.67 94 1023.3
20181015134102 43 334 7.0 19.1 0.21 1.13 0.64 94 1022.9
20181015133538 43 344 7.8 20.0 0.18 1.09 0.60 94 1022.4
20181015133031 43 340 11.3 20.9 0.16 1.06 0.57 94 1022.5
20181015132603 43 359 12.2 20.9 0.14 1.04 0.55 93 1022.0
20181015132056 43 356 10.4 19.1 0.11 1.00 0.51 94 1021.6
20181015131548 43 341 10.4 20.9 0.10 0.99 0.50 94 1021.4
20181015131041 43 352 10.4 20.9 0.09 0.98 0.49 94 1021.6
20181015130532 43 332 8.7 18.2 0.08 0.97 0.48 94 1021.6
20181015130103 43 345 10.4 18.2 0.07 0.96 0.47 93 1021.5
20181015125541 43 349 9.6 16.5 0.06 0.95 0.46 93 1021.6
20181015125031 43 36 7.8 19.1 0.04 0.93 0.44 94 1021.8
20181015124527 43 340 12.2 19.1 0.03 0.92 0.43 93 1021.6
20181015124022 43 18 11.3 18.2 0.03 0.92 0.43 94 1021.4
20181015123513 43 346 8.7 15.6 0.01 0.90 0.41 94 1021.2
20181015123109 43 335 7.8 15.6 0.01 0.90 0.41 94 1021.1
20181015122600 44 28 7.0 14.8 0.02 0.90 0.41 93 1021.2
20181015122051 44 43 6.1 18.2 0.02 0.89 0.40 93 1021.1
20181015121529 44 46 10.4 19.1 0.03 0.89 0.40 93 1021.1
20181015121103 44 343 10.4 18.2 0.03 0.89 0.40 93 1021.2
20181015120554 44 344 11.3 18.2 0.04 0.89 0.40 94 1021.2
20181015120038 44 353 7.8 17.4 0.07 0.89 0.40 94 1021.1
20181015115601 44 7 8.7 15.6 0.09 0.89 0.40 94 1021.1
20181015115054 44 18 8.7 14.8 0.10 0.89 0.40 94 1021.0
20181015114547 44 18 8.7 13.9 0.11 0.89 0.40 94 1021.0
20181015114025 43 357 8.7 14.8 0.14 0.89 0.40 94 1021.2
20181015113559 43 357 8.7 15.6 0.16 0.89 0.40 94 1021.2
20181015113054 44 8 7.8 16.5 0.18 0.89 0.40 94 1020.6
20181015112547 43 37 9.6 17.4 0.18 0.88 0.39 94 1020.7
20181015112040 43 18 7.8 14.8 0.19 0.87 0.38 94 1021.0
20181015111531 43 331 7.0 13.9 0.19 0.86 0.37 94 1021.4
20181015111106 43 348 7.8 13.9 0.20 0.86 0.37 94 1021.0
20181015110558 44 311 6.1 11.3 0.20 0.85 0.36 94 1021.3
20181015110030 44 329 5.2 14.8 0.18 0.82 0.33 94 1021.3
20181015105524 44 326 6.1 14.8 0.16 0.80 0.31 94 1020.9
20181015105018 44 18 8.7 13.9 0.16 0.79 0.30 94 1020.3
20181015104511 44 334 7.8 13.9 0.14 0.77 0.28 93 1019.8
20181015104105 44 1 7.8 13.9 0.13 0.75 0.26 93 1019.9
20181015103558 45 302 6.1 16.5 0.11 0.73 0.24 93 1020.4
20181015103050 45 61 6.1 16.5 0.09 0.71 0.22 93 1020.5
20181015102541 45 1 6.1 13.9 0.08 0.70 0.21 93 1020.3
20181015102018 45 357 7.8 18.2 0.06 0.68 0.19 93 1020.3
20181015101548 45 13 11.3 18.2 0.05 0.67 0.18 93 1020.1
20181015101042 45 18 7.8 18.2 0.04 0.66 0.17 93 1019.8
20181015100535 45 3 9.6 17.4 0.03 0.65 0.16 93 1019.9
20181015100030 45 346 7.8 16.5 0.02 0.64 0.15 93 1020.1
20181015095603 45 342 6.1 18.2 0.02 0.64 0.15 94 1020.2
20181015095046 45 345 7.8 13.9 0.02 0.63 0.14 93 1020.4
20181015094539 45 338 6.1 13.9 0.02 0.63 0.14 94 1020.3
20181015094016 45 342 6.1 13.9 0.02 0.62 0.13 93 1019.9
20181015093547 46 354 7.8 13.9 0.02 0.62 0.13 93 1019.7
20181015093036 46 320 7.8 13.0 0.02 0.62 0.13 93 1019.7
20181015092530 46 342 7.0 13.0 0.02 0.62 0.13 93 1019.4
20181015092100 46 325 8.7 18.2 0.02 0.62 0.13 94 1019.2
20181015091552 46 323 7.8 18.2 0.02 0.62 0.13 94 1019.1
20181015091040 47 340 4.3 13.9 0.02 0.62 0.13 94 1019.2
20181015090518 47 334 7.0 13.9 0.03 0.62 0.13 94 1019.0
20181015090105 47 34 5.2 11.3 0.03 0.62 0.13 94 1018.8
20181015085539 47 18 5.2 14.8 0.03 0.62 0.13 94 1018.9
20181015085033 47 344 7.8 14.8 0.03 0.61 0.12 93 1018.7
20181015084604 47 354 7.8 14.8 0.03 0.61 0.12 93 1018.9
20181015084055 47 342 9.6 15.6 0.02 0.60 0.11 93 1019.3
20181015083546 47 308 8.7 15.6 0.02 0.60 0.11 93 1019.3
20181015083036 47 341 7.0 14.8 0.03 0.60 0.11 93 1019.3
20181015082529 47 359 8.7 17.4 0.04 0.60 0.11 93 1018.9
20181015082102 48 34 7.8 13.0 0.06 0.60 0.11 93 1018.6
20181015081540 48 348 7.0 16.5 0.07 0.60 0.11 93 1019.2
20181015081030 48 337 7.0 20.0 0.06 0.59 0.10 92 1018.9
20181015080600 48 342 8.7 20.0 0.07 0.59 0.10 92 1018.9
20181015080054 48 328 10.4 23.5 0.08 0.59 0.10 93 1018.4
20181015075548 48 352 12.2 23.5 0.09 0.59 0.10 93 1018.3
20181015075039 48 6 9.6 18.2 0.09 0.58 0.09 93 1018.2
20181015074532 48 359 7.8 18.2 0.09 0.58 0.09 93 1018.1
20181015074103 48 333 10.4 16.5 0.09 0.58 0.09 93 1018.5
20181015073537 48 312 7.8 17.4 0.09 0.58 0.09 93 1018.5
20181015073110 49 344 10.4 17.4 0.08 0.57 0.08 93 1018.5
20181015072047 49 18 8.7 17.4 0.05 0.54 0.05 93 1018.3
20181015071541 49 23 9.6 17.4 0.04 0.53 0.04 93 1018.8
20181015071034 50 351 7.8 15.6 0.04 0.53 0.04 93 1018.8
20181015070528 50 342 10.4 20.9 0.03 0.52 0.03 92 1018.3
20181015070025 50 344 10.4 20.9 0.02 0.51 0.02 92 1018.4
20181015065518 51 336 8.7 18.2 0.01 0.50 0.01 91 1018.5
20181015065030 51 337 7.0 17.4 0.00 0.49 0.00 91 1018.2
20181015064520 51 340 9.6 22.6 0.00 0.49 0.00 90 1017.7
20181015064031 51 319 12.2 22.6 0.00 0.49 0.00 90 1017.4
20181015063524 51 36 9.6 19.1 0.00 0.49 0.00 91 1017.4
20181015063033 52 337 7.8 16.5 0.00 0.49 0.00 91 1017.4
20181015062522 52 43 8.7 19.1 0.00 0.49 0.00 91 1017.4
20181015062017 52 5 10.4 19.1 0.00 0.49 0.00 90 1017.3
20181015061526 52 344 10.4 17.4 0.00 0.49 0.00 90 1017.2
20181015061016 53 9 9.6 18.2 0.00 0.49 0.00 90 1017.1
20181015060527 53 28 9.6 16.5 0.00 0.49 0.00 91 1017.2
20181015060018 53 6 7.8 14.8 0.00 0.49 0.00 92 1017.2
20181015055530 53 18 8.7 16.5 0.00 0.49 0.00 92 1017.0
20181015055019 53 344 9.6 17.4 0.00 0.49 0.00 92 1016.9
20181015054533 54 346 8.7 17.4 0.00 0.49 0.00 91 1016.8
20181015054027 54 355 8.7 16.5 0.00 0.49 0.00 92 1016.8
20181015053518 54 1 7.8 19.1 0.00 0.49 0.00 92 1016.9
20181015053030 54 18 10.4 19.1 0.00 0.49 0.00 92 1016.8
20181015052518 54 18 10.4 13.9 0.00 0.49 0.00 92 1017.0
20181015052031 55 327 7.8 15.6 0.00 0.49 0.00 92 1017.2
20181015051522 55 23 9.6 15.6 0.00 0.49 0.00 92 1017.4
20181015051015 55 352 10.4 15.6 0.00 0.49 0.00 92 1017.3
20181015050525 55 9 7.0 12.2 0.00 0.49 0.00 92 1017.3
20181015050023 55 357 7.0 17.4 0.00 0.49 0.00 92 1017.1
20181015045513 55 309 7.0 19.1 0.00 0.49 0.49 93 1017.0
20181015045045 56 354 11.3 19.1 0.00 0.49 0.49 93 1016.8
20181015044535 56 356 12.2 17.4 0.00 0.49 0.49 93 1016.5
20181015044029 56 346 8.7 14.8 0.00 0.49 0.49 93 1016.4
20181015043601 56 315 8.7 15.6 0.00 0.49 0.49 93 1016.3
20181015043051 57 346 7.8 15.6 0.00 0.49 0.49 93 1016.0
20181015042545 57 302 9.6 19.1 0.00 0.49 0.49 93 1016.1
20181015042040 58 9 13.0 19.1 0.00 0.49 0.49 92 1016.2
20181015041534 58 300 10.4 18.2 0.00 0.49 0.49 92 1016.3
20181015041108 59 23 10.4 19.1 0.00 0.49 0.49 91 1016.0
20181015040559 61 329 9.6 19.1 0.01 0.49 0.49 91 1015.9
20181015040053 62 28 6.1 13.9 0.01 0.49 0.49 93 1015.5
20181015035546 62 42 6.1 10.4 0.01 0.49 0.49 94 1015.4
20181015035039 62 18 6.1 12.2 0.01 0.49 0.49 94 1015.2
20181015034529 62 2 7.8 12.2 0.03 0.49 0.49 94 1015.2
20181015034102 62 340 5.2 12.2 0.12 0.49 0.49 94 1015.2
20181015033538 62 346 6.1 13.0 0.28 0.49 0.49 94 1015.1
20181015033033 62 336 7.8 12.2 0.43 0.49 0.49 94 1014.6
20181015032605 62 47 8.7 12.2 0.47 0.49 0.49 94 1014.9
20181015032056 62 346 7.0 14.8 0.48 0.49 0.49 94 1015.3
20181015031549 62 9 7.0 14.8 0.48 0.49 0.49 94 1015.4
20181015031043 62 35 5.2 10.4 0.49 0.49 0.49 94 1015.5
20181015030538 62 23 5.2 13.9 0.48 0.48 0.48 94 1015.4
20181015030014 62 354 7.0 13.9 0.48 0.48 0.48 94 1015.2
20181015025545 62 343 3.5 13.0 0.48 0.48 0.48 94 1015.6
20181015025037 63 61 4.3 13.0 0.48 0.48 0.48 93 1015.0
20181015024531 63 39 7.0 12.2 0.46 0.46 0.46 92 1014.4
20181015024105 63 13 5.2 8.7 0.36 0.36 0.37 92 1014.7
20181015023557 64 92 2.6 11.3 0.19 0.19 0.19 92 1015.4
20181015023048 64 357 2.6 14.8 0.06 0.06 0.06 91 1014.7
20181015022539 64 349 7.8 14.8 0.02 0.02 0.02 91 1013.8
20181015022016 65 359 7.0 14.8 0.01 0.01 0.01 90 1013.3
20181015021549 65 23 7.0 12.2 0.01 0.01 0.01 89 1013.8
20181015021043 65 14 7.0 12.2 0.00 0.00 0.00 88 1014.0
20181015020535 65 28 7.0 13.0 0.00 0.00 0.00 88 1013.6
20181015020030 65 350 5.2 14.8 0.00 0.00 0.00 88 1013.4
20181015015601 65 351 7.8 14.8 0.00 0.00 0.00 88 1012.8
20181015015055 66 357 10.4 14.8 0.00 0.00 0.00 88 1012.6
20181015014547 66 5 6.1 13.9 0.00 0.00 0.00 88 1012.6
20181015014022 66 11 7.8 13.9 0.00 0.00 0.00 88 1012.5
20181015013555 66 13 7.8 13.9 0.00 0.00 0.00 88 1011.8
20181015013047 66 359 6.1 12.2 0.00 0.00 0.00 88 1011.8
20181015012539 66 10 7.0 16.5 0.00 0.00 0.00 88 1011.8
20181015012032 66 4 8.7 16.5 0.00 0.00 0.00 88 1011.6
20181015011522 66 356 7.0 13.9 0.00 0.00 0.00 88 1011.4
20181015011014 66 18 9.6 13.0 0.00 0.00 0.00 88 1011.4
20181015010607 66 28 4.3 12.2 0.00 0.00 0.00 88 1011.6
20181015010059 67 5 7.8 11.3 0.00 0.00 0.00 88 1011.4
20181015005533 67 343 5.2 13.0 0.00 0.00 0.00 88 1011.6
20181015005027 67 354 7.8 12.2 0.00 0.00 0.00 88 1011.8
20181015004602 67 349 5.2 10.4 0.00 0.00 0.00 88 1011.4
20181015004054 67 351 6.1 10.4 0.00 0.00 0.00 89 1011.7
20181015003546 67 4 5.2 9.6 0.00 0.00 0.00 88 1011.9
20181015003038 67 12 5.2 12.2 0.00 0.00 0.00 88 1011.7
20181015002530 67 11 6.1 15.6 0.00 0.00 0.00 88 1011.3
20181015002102 67 28 7.8 15.6 0.00 0.00 0.00 88 1010.9
20181015001537 67 18 7.0 13.0 0.00 0.00 0.00 89 1010.9
20181015001030 67 7 6.1 11.3 0.00 0.00 0.00 89 1011.0
20181015000604 67 28 7.0 15.6 0.00 0.00 0.00 89 1010.8
20181015000054 67 5 9.6 15.6 0.00 0.00 0.00 89 1010.9
20181014235546 67 18 6.1 11.3 0.00 0.00 0.00 89 1011.0
20181014235039 67 46 6.1 13.9 0.00 0.00 0.00 89 1010.9
20181014234515 68 359 9.6 13.9 0.00 0.00 0.00 88 1010.9
20181014234104 68 13 7.8 13.9 0.00 0.00 0.00 88 1010.8
20181014233540 69 346 7.0 13.0 0.00 0.00 0.00 87 1010.8
20181014233033 69 32 7.0 13.0 0.00 0.00 0.00 86 1010.7
20181014232606 70 23 6.1 13.0 0.00 0.00 0.00 86 1010.6
20181014232057 71 359 7.8 13.0 0.00 0.00 0.00 86 1010.6
20181014231551 72 18 6.1 13.9 0.00 0.00 0.00 85 1010.5
20181014231037 74 45 8.7 13.9 0.00 0.00 0.00 82 1010.3
20181014230529 76 360 8.7 13.9 0.00 0.00 0.00 84 1010.2
20181014230102 77 1 2.6 4.3 0.00 0.00 0.00 86 1010.0
20181014225539 77 165 1.7 2.6 0.00 0.00 0.00 85 1009.9
20181014225030 77 165 0.9 1.7 0.00 0.00 0.00 85 1010.0
20181014224524 77 165 0.0 0.9 0.00 0.00 0.00 85 1009.8
20181014224016 77 165 0.0 1.7 0.00 0.00 0.00 85 1009.9
20181014223609 77 165 0.0 1.7 0.00 0.00 0.00 84 1009.9
20181014223043 77 165 0.9 1.7 0.00 0.00 0.00 83 1009.8
20181014222516 77 165 0.9 1.7 0.00 0.00 0.00 84 1009.7
20181014222104 77 165 0.0 0.9 0.00 0.00 0.00 83 1009.6
20181014221536 77 165 0.0 1.7 0.00 0.00 0.00 83 1009.6
20181014221028 77 165 0.0 1.7 0.00 0.00 0.00 83 1009.6
20181014220523 77 165 0.0 2.6 0.00 0.00 0.00 83 1009.6
20181014220015 77 165 0.9 2.6 0.00 0.00 0.00 82 1009.5
20181014215607 77 164 0.9 1.7 0.00 0.00 0.00 82 1009.5
20181014215100 77 164 0.0 0.9 0.00 0.00 0.00 83 1009.5
20181014214553 77 164 0.0 0.9 0.00 0.00 0.00 82 1009.6
20181014214028 77 164 0.0 1.7 0.00 0.00 0.00 82 1009.6
20181014213524 77 164 0.0 1.7 0.00 0.00 0.00 82 1009.6
20181014213019 77 164 0.0 2.6 0.00 0.00 0.00 82 1009.5
20181014212513 77 164 0.9 4.3 0.00 0.00 0.00 82 1009.6
20181014212107 77 207 0.9 4.3 0.00 0.00 0.00 82 1009.5
20181014211558 77 186 1.7 2.6 0.00 0.00 0.00 82 1009.5
20181014211050 77 189 2.6 3.5 0.00 0.00 0.00 82 1009.5
20181014210543 78 199 1.7 6.1 0.00 0.00 0.00 82 1009.5
20181014210019 78 195 3.5 6.1 0.00 0.00 0.00 81 1009.4